Location: Kampung Segan
(3.1399°N, 113.1002°E)
Time: 13:19:17
(UTC+00:00)

Cosmos 1833 Rocket - Pass Details

Date: 05 August 2024
Orbit: 830 x 840 km, 71.0° (Epoch: 08 September)

Event Time Altitude Azimuth Distance (km) Brightness Sun altitude
Rises 12:04:37 0° 325° (NW) 3,378 6.7 -20.7°
Reaches altitude 10° 12:07:19 10° 315° (NW) 2,445 6.0 -21.4°
Maximum altitude 12:12:08 30° 255° (WSW) 1,469 4.4 -22.5°
Drops below altitude 10° 12:16:58 10° 196° (SSW) 2,445 5.1 -23.6°
Enters shadow 12:19:26 - 186° (S) 3,285 5.6 -24.2°
